Flag for U.S.A. Weather past 2 weeks in Portland, Maine, U.S.A.

Now
81 °F

Broken clouds.


Feels Like: 84 °F
Forecast: 66 / 76 °F
Wind: 7 mph from Southeast

Location: Portland - Portland International Jetport

Current Time: Jul 30, 2015 at 1:21:06 PM

Latest Report: Jul 30, 2015 at 12:51 PM


Visibility: 10 mi

Pressure: 29.80 "Hg

Humidity: 67%

Dew point: 69 °F

Location of PortlandLocation

Historic Weather in Portland — Graph

°F

Portland temperature yesterday

Maximum temperature yesterday: 86 °F (at 10:51 AM)
Minimum temperature yesterday: 65 °F (at 1:51 AM)
Average temperature yesterday: 75 °F

Past Weeks' High & Low Weather Summary

 TemperatureHumidityPressure
High86 °F (Jul 29, 10:51 AM)100% (Jul 19, 6:51 AM)30.13 "Hg (Jul 19, 6:51 AM)
Low54 °F (Jul 17, 3:51 AM)37% (Jul 16, 3:51 PM)29.56 "Hg (Jul 22, 12:51 AM)
Average68 °F81%29.88 "Hg
* Reported Jul 15 11:51 AM — Jul 30 11:51 AM, Portland, Weather by CustomWeather, © 2015

Note: Actual official high and low records may vary slightly from our data, if they occured in-between our weather recording intervals... More about our weather records

Advertising

Portland weather history for previous 24 hours

 ConditionsComfort  
Time TempWeatherWind HumidityBarometerVisibility
11:51 AM
Thu, Jul 30
78 °FPartly sunny.8 mph69%29.82 "Hg10 mi
10:51 AM77 °FPartly sunny.7 mph71%29.83 "Hg10 mi
9:51 AM77 °FPartly sunny.7 mph71%29.84 "Hg10 mi
8:51 AM74 °FScattered clouds.5 mph79%29.85 "Hg10 mi
7:51 AM73 °FScattered clouds.No wind79%29.86 "Hg10 mi
6:51 AM69 °FPassing clouds.No wind90%29.86 "Hg7 mi
5:51 AM67 °FFog.No wind93%29.86 "Hg6 mi
4:51 AM67 °FPassing clouds.No wind93%29.85 "Hg7 mi
3:51 AM67 °FClear.No wind97%29.86 "Hg8 mi
2:51 AM69 °FClear.3 mph93%29.86 "Hg10 mi
1:51 AM69 °FClear.No wind93%29.86 "Hg10 mi
12:51 AM70 °FClear.No wind87%29.86 "Hg10 mi
11:51 PM
Wed, Jul 29
69 °FClear.No wind87%29.87 "Hg10 mi
10:51 PM70 °FClear.No wind84%29.87 "Hg10 mi
9:51 PM72 °FClear.No wind81%29.87 "Hg10 mi
8:51 PM73 °FScattered clouds.No wind76%29.86 "Hg10 mi
7:51 PM76 °FScattered clouds.No wind69%29.86 "Hg10 mi
6:51 PM77 °FBroken clouds.6 mph66%29.86 "Hg10 mi
5:51 PM80 °FBroken clouds.9 mph62%29.86 "Hg10 mi
4:51 PM81 °FBroken clouds.15 mph60%29.88 "Hg10 mi
3:51 PM84 °FBroken clouds.14 mph59%29.87 "Hg10 mi
2:51 PM84 °FPartly sunny.9 mph53%29.89 "Hg10 mi
1:51 PM82 °FBroken clouds.10 mph53%29.90 "Hg10 mi
Weather by CustomWeather, © 2015

See weather overviewHow to use our weather pages